1363564834628,0.839485
1363564894628,0.832469
1363564954628,0.835476
1363565014628,0.832930
1363565074628,0.841419
1363565134628,0.840331
1363565194628,0.841420
1363565254628,0.841525
1363565314628,0.833937
1363565374628,0.833003
1363565434628,0.838508
1363565494628,0.838770
1363565554628,0.829403
1363565614628,0.837265
1363565674628,0.833231
1363565734628,0.832214
1363565794628,0.830856
1363565854628,0.836349
1363565914628,0.838314
1363565974628,0.829923
1363566034628,0.832179
1363566094628,0.836284
1363566154628,0.836680
1363566214628,0.832408
1363566274628,0.834760
1363566334628,0.831087
1363566394628,0.836359
1363566454628,0.836701
1363566514628,0.846014
1363566574628,0.850537
1363566634628,0.843165
1363566694628,0.851049
1363566754628,0.846377
1363566814628,0.842479
1363566874628,0.846639
1363566934628,0.850567
1363566994628,0.844334
1363567054628,0.853166
1363567114628,0.853454
1363567174628,0.844727
1363567234628,0.847782
1363567294628,0.850828
1363567354628,0.847011
1363567414628,0.852940
1363567474628,0.850309
1363567534628,0.852366
1363567594628,0.858430
1363567654628,0.850354
1363567714628,0.854134
1363567774628,0.847628
1363567834628,0.853800
1363567894628,0.855057
1363567954628,0.844257
1363568014628,0.846385
1363568074628,0.849847
1363568134628,0.851231
1363568194628,0.851877
1363568254628,0.846806
1363568314628,0.842912
1363568374628,0.848520
1363568434641,0.846968
1363568494641,0.846361
1363568554641,0.856075
1363568614641,0.856183
1363568674641,0.854365
1363568734641,0.856588
1363568794641,0.849986
1363568854641,0.851838
1363568914641,0.852920
1363568974641,0.850309
1363569034641,0.851267
1363569094641,0.848250
1363569634641,0.850567
1363569694641,0.844702
1363569754641,0.843836
1363569814641,0.852911
1363569874641,0.859325
1363569934641,0.855517
1363569994641,0.863280
1363570054641,0.862559
1363570114641,0.860526
1363570174641,0.860063
1363570234641,0.871843
1363570294641,0.877568
1363570354641,0.876130
1363570414641,0.879103
1363570474641,0.881120
1363570534641,0.879230
1363570594641,0.877122
1363570654641,0.873209
1363570714641,0.873432
1363570774641,0.879308
1363570834641,0.869516
1363570894641,0.867851
1363570954641,0.868972
1363571014641,0.866870
1363571074641,0.865936
1363571134641,0.863241
1363571194641,0.861211
1363571254641,0.857544
1363571314641,0.854933
1363571374641,0.852832
1363571434641,0.859215
1363571494641,0.853062
1363571554641,0.852636
1363571614641,0.854679
1363571674641,0.860820
1363571734641,0.852562
1363571794641,0.852131
1363571854641,0.859380
1363571914641,0.847301
1363571974641,0.847993
1363572034653,0.852146
1363572094653,0.847384
1363572154653,0.850310
1363572214653,0.848082
1363572274653,0.841837
1363572334653,0.848799
1363572394653,0.847925
1363572454653,0.849838
1363572514653,0.845326
1363572574653,0.843549
1363572634653,0.845206
1363572694653,0.855374
1363572754653,0.847291
1363572814653,0.841035
1363572874653,0.844517
1363572934653,0.843928
1363572994653,0.855050
1363573054653,0.857413
1363573114653,0.866705
1363573174653,0.868026
1363573234653,0.869638
1363573294653,0.860985
1363573354653,0.869938
1363573414653,0.864241
1363573474653,0.865555
1363573534653,0.878458
1363573594653,0.864095
1363573654653,0.879184
1363573714653,0.872284
1363573774653,0.870986
1363573834653,0.872747
1363573894653,0.872659
1363573954653,0.863767
1363574014653,0.873279
1363574074653,0.860366
1363574134653,0.863160
1363574194653,0.855248
1363574254653,0.859345
1363574314653,0.856258
1363574374653,0.848364
1363574434653,0.858385
1363574494653,0.856264
1363574554653,0.852159
1363574614653,0.850952
1363574674653,0.854822
1363574734653,0.855899
1363574794653,0.856142
1363574854653,0.856580
1363574914653,0.850037
1363574974653,0.857534
1363575034653,0.860666
1363575094653,0.849649
1363575154653,0.857359
1363575214653,0.849478
1363575274653,0.851196
1363575334653,0.854040
1363575394653,0.856525
1363575454653,0.847494
1363575514653,0.849934
1363575574653,0.856806
1363575634665,0.845725
1363575694665,0.853869
1363575754665,0.853152
1363575814665,0.845917
1363575874665,0.852324
1363575934665,0.852183
1363575994665,0.853551
1363576054665,0.853737
1363576114665,0.848909
1363576174665,0.853412
1363576234665,0.857295
1363576294665,0.854962
1363576354665,0.850536
1363576414665,0.857162
1363576474665,0.849976
1363576534665,0.842030
1363576594665,0.854936
1363576654665,0.854377
1363576714665,0.875122
1363576774665,0.886773
1363576834665,0.883044
1363576894665,0.906393
1363576954665,0.902130
1363577014665,0.902860
1363577074665,0.887191
1363577134665,0.874630
1363577194665,0.880628
1363577254665,0.882831
1363577314665,0.890246
1363577374665,0.888267
1363577434665,0.880167
1363577494665,0.889388
1363577554665,0.886989
1363577614665,0.892456
1363577674665,0.889465
1363577734665,0.893261
1363577794665,0.900838
1363577854665,0.893190
1363577914665,0.898625
1363577974665,0.897278
1363578034665,0.903900
1363578094665,0.894678
1363578154665,0.885324
1363578214665,0.896300
1363578274665,0.898450
1363578334665,0.893413
1363578394665,0.891228
1363578454665,0.901198
1363578514665,0.890361
1363578574665,0.894520
1363578634665,0.896440
1363578694665,0.885565
1363578754665,0.882881
1363578814665,0.888023
1363578874665,0.884173
1363578934665,0.883002
1363578994665,0.881789
1363579054665,0.879128
1363579114665,0.880395
1363579174665,0.884849
1363579234678,0.880247
1363579294678,0.879612
1363579354678,0.875204
1363579414678,0.878987
1363579474678,0.874694
1363579534678,0.877022
1363579594678,0.878019
1363579654678,0.874949
1363579714678,0.879464
1363579774678,0.882381
1363579834678,0.875441
1363579894678,0.875350
1363579954678,0.875364
1363580014678,0.868858
1363580074678,0.879085
1363580134678,0.877830
1363580194678,0.874526
1363580254678,0.873614
1363580314678,0.865842
1363580374678,0.871832
1363580434678,0.868725
1363580494678,0.873667
1363580554678,0.864238
1363580614678,0.873769
1363580674678,0.871573
1363580734678,0.864092
1363580794678,0.862802
1363580854678,0.864606
1363580914678,0.861149
1363580974678,0.860459
1363581034678,0.867111
1363581094678,0.858349
1363581154678,0.853051
1363581214678,0.864667
1363581274678,0.864928
1363581334678,0.860821
1363581394678,0.864640
1363581454678,0.864073
1363581514678,0.865300
1363581574678,0.849719
1363581634678,0.869634
1363581694678,0.867150
1363581754678,0.864956
1363581814678,0.854168
1363581874678,0.859971
1363581934678,0.848927
1363581994678,0.853105
1363582054678,0.856102
1363582114678,0.854214
1363582174678,0.853835
1363582234678,0.861235
1363582294678,0.854439
1363582354678,0.858872
1363582414678,0.853923
1363582474678,0.857899
1363582534678,0.855472
1363582594678,0.855578
1363582654678,0.859169
1363582714678,0.853034
1363582774678,0.858242
1363582834690,0.857523
1363582894690,0.859051
1363582954690,0.850770
1363583014690,0.847735
1363583074690,0.853121
1363583134690,0.859009
1363583194690,0.857674
1363583254690,0.854633
1363583314690,0.851083
1363583374690,0.853303
1363583434690,0.850514
1363583494690,0.844698
1363583554690,0.844570
1363583614690,0.852020
1363583674690,0.853872
1363583734690,0.846527
1363583794690,0.846119
1363583854690,0.850739
1363583914690,0.847609
1363583974690,0.844278
1363584034690,0.847259
1363584094690,0.847869
1363584154690,0.848309
1363584214690,0.852216
1363584274690,0.850513
1363584334690,0.848708
1363584394690,0.849126
1363584454690,0.855089
1363584514690,0.844236
1363584574690,0.850001
1363584634690,0.850561
1363584694690,0.859541
1363584754690,0.856062
1363584814690,0.859508
1363584874690,0.853016
1363584934690,0.854435
1363584994690,0.849121
1363585054690,0.854475
1363585114690,0.853874
1363585174690,0.854509
1363585234690,0.846373
1363585294690,0.853524
1363585354690,0.856847
1363585414690,0.852676
1363585474690,0.850667
1363585534690,0.847538
1363585594690,0.852813
1363585654690,0.852943
1363585714690,0.852659
1363585774690,0.853240
1363585834690,0.858139
1363585894690,0.850832
1363585954690,0.847501
1363586014690,0.849421
1363586074690,0.851234
1363586134690,0.848538
1363586194690,0.856290
1363586254690,0.854004
1363586314690,0.857476
1363586374690,0.859221
1363586434702,0.853620
1363586494702,0.861033
1363586554702,0.860063
1363586614702,0.868306
1363586674702,0.882187
1363586734702,0.880083
1363586794702,0.877312
1363586854702,0.887258
1363586914702,0.882980
1363586974702,0.885565
1363587034702,0.881176
1363587094702,0.880215
1363587154702,0.872034
1363587214702,0.876264
1363587274702,0.877032
1363587334702,0.876509
1363587394702,0.883560
1363587454702,0.872393
1363587514702,0.875396
1363587574702,0.866669
1363600534736,0.874474
1363600594736,0.876318
1363600654736,0.874776
1363600714736,0.867036
1363600774736,0.874686
1363600834748,0.878673
1363600894748,0.880003
1363600954748,0.881515
1363601014748,0.882222
1363601074748,0.875501
1363601134748,0.874233
1363601194748,0.882422
1363601254748,0.879617
1363601314748,0.871800
1363601374748,0.870964
1363601434748,0.871842
1363601494748,0.869036
1363601554748,0.866034
1363601614748,0.864282
1363601674748,0.856642
1363601734748,0.865195
1363601794748,0.862928
1363601854748,0.869961
1363601914748,0.868383
1363601974748,0.862676
1363602034748,0.867119
1363602094748,0.868311
1363602154748,0.862965
1363602214748,0.864883
1363602274748,0.871774
1363602334748,0.857398
1363602394748,0.877979
1363602454748,0.874892
1363602514748,0.883826
1363602574748,0.870304
1363602634748,0.872430
1363602694748,0.882449
1363602754748,0.875220
1363602814748,0.873625
1363602874748,0.867771
1363602934748,0.874650
1363602994748,0.874346
1363603054748,0.876580
1363603114748,0.863582
1363603174748,0.879257
1363603234748,0.876739
1363603294748,0.865872
1363603354748,0.873159
1363603414748,0.877238
1363603474748,0.873766
1363603534748,0.871312
1363603594748,0.873960
1363603654748,0.877432
1363603714748,0.870495
1363603774748,0.869934
1363603834748,0.870109
1363603894748,0.864779
1363603954748,0.859697
1363604014748,0.866224
1363604074748,0.864640
1363604134748,0.865088
1363604194748,0.863230
1363604254748,0.856631
1363604314748,0.855644
1363604374748,0.864588
1363604434760,0.866183
1363604494760,0.868588
1363604554760,0.865608
1363604614760,0.868469
1363604674760,0.867102
1363604734760,0.871900
1363604794760,0.867777
1363604854760,0.869678
1363604914760,0.869473
1363604974760,0.871327
1363605034760,0.869525
1363605094760,0.872972
1363605154760,0.867717
1363605214760,0.874399
1363605274760,0.878365
1363605334760,0.865139
1363605394760,0.871664
1363605454760,0.871528
1363605514760,0.880331
1363605574760,0.877409
1363605634760,0.875787
1363605694760,0.880614
1363605754760,0.875211
1363605814760,0.873583
1363605874760,0.871133
1363605934760,0.881930
1363605994760,0.875421
1363606054760,0.868833
1363606114760,0.870186
1363606174760,0.868579
1363606234760,0.867682
1363606294760,0.881622
1363606354760,0.876954
1363606414760,0.875745
1363606474760,0.888087
1363606534760,0.878760
1363606594760,0.882097
1363606654760,0.881862
1363606714760,0.880196
1363606774760,0.886550
1363606834760,0.884802
1363606894760,0.884947
1363606954760,0.877491
1363607014760,0.884759
1363607074760,0.882343
1363607134760,0.881134
1363607194760,0.880365
1363607254760,0.883328
1363607314760,0.881159
1363607374760,0.881776
1363607434760,0.871873
1363607494760,0.881400
1363607554760,0.884552
1363607614760,0.878919
1363607674760,0.865562
1363607734760,0.860805
1363607794760,0.875195
1363607854760,0.871950
1363607914760,0.871740
1363607974760,0.872208
1363608034738,0.865263
1363608094738,0.861871
1363608154738,0.869289
1363608214738,0.873453
1363608274738,0.868392
1363608334738,0.868560
1363608394738,0.862992
1363608454738,0.867729
1363608514738,0.859998
1363608574738,0.856981
1363608634738,0.855537
1363608694738,0.856782
1363608754738,0.861219
1363608814738,0.863445
1363608874738,0.860864
1363608934738,0.869508
1363608994738,0.861810
1363609054738,0.858659
1363609114738,0.861242
1363609174738,0.859528
1363609234738,0.859548
1363609294738,0.862750
1363609354738,0.859960
1363609414738,0.858631
1363609474738,0.870599
1363609534738,0.869299
1363609594738,0.884569
1363609654738,0.869234
1363609714738,0.876760
1363609774738,0.880228
1363609834738,0.879590
1363609894738,0.879879
1363609954738,0.879791
1363610014738,0.875018
1363610074738,0.878044
1363610134738,0.876630
1363610194738,0.866732
1363610254738,0.874807
1363610314738,0.869440
1363610374738,0.860817
1363610434738,0.874054
1363610494738,0.863149
1363610554738,0.857100
1363610614738,0.857097
1363610674738,0.850037
1363610734738,0.861092
1363610794738,0.859879
1363610854738,0.854563
1363610914738,0.848390
1363610974738,0.853254
1363611034738,0.851303
1363611094738,0.854783
1363611154738,0.855378
1363611214738,0.854554
1363611274738,0.859857
1363611334738,0.855939
1363611394738,0.859475
1363611454738,0.853432
1363611514738,0.859435
1363611574738,0.859661
1363611634750,0.848745
1363611694750,0.851946
1363611754750,0.848658
1363611814750,0.852834
1363611874750,0.861740
1363611934750,0.859280
1363611994750,0.859558
1363612054750,0.857501
1363612114750,0.854810
1363612174750,0.857163
1363612234750,0.859192
1363612294750,0.860873
1363612354750,0.861485
1363612414750,0.861667
1363612474750,0.853155
1363612534750,0.852575
1363612594750,0.855715
1363612654750,0.851013
1363612714750,0.851566
1363612774750,0.854234
1363612834750,0.860048
1363612894750,0.865231
1363612954750,0.851783
1363613014750,0.846502
1363613074750,0.856429
1363613134750,0.860442
1363613194750,0.858808
1363613254750,0.855525
1363613314750,0.852532
1363613374750,0.855870
1363613434750,0.853422
1363613494750,0.859431
1363613554750,0.858166
1363613614750,0.858321
1363613674750,0.857161
1363613734750,0.852768
1363613794750,0.847935
1363613854750,0.848865
1363613914750,0.858644
1363613974750,0.850352
1363614034750,0.847342
1363614094750,0.844751
1363614154750,0.850493
1363614214750,0.850234
1363614274750,0.847161
1363614334750,0.844210
1363614394750,0.846898
1363614454750,0.855406
1363614514750,0.846810
1363614574750,0.842377
1363614634750,0.850664
1363614694750,0.843428
1363614754750,0.840538
1363614814750,0.843104
1363614874750,0.839146
1363614934750,0.841853
1363614994750,0.843814
1363615054750,0.847085
1363615114750,0.843130
1363615174750,0.843725
1363615234762,0.841455
1363615294762,0.843654
1363615354761,0.849667
1363615414762,0.839824
1363615474762,0.843627
1363615534762,0.843095
1363615594762,0.839833
1363615654762,0.836462
1363615714762,0.840622
1363615774762,0.835955
1363615834762,0.837487
1363615894762,0.843813
1363615954762,0.843020
1363616014761,0.835308
1363616074761,0.836425
1363616134761,0.838676
1363616194761,0.829991
1363616254761,0.833254
1363616314761,0.837146
1363616374761,0.837271
1363616434762,0.834226
1363616494762,0.842410
1363616554762,0.840946
1363616614762,0.841975
1363616674762,0.839054
1363616734761,0.841712
1363616794762,0.833999
1363616854762,0.836869
1363616914762,0.840989
1363616974762,0.840751
1363617034762,0.832264
1363617094762,0.842322
1363617154762,0.841762
1363617214762,0.835836
1363617274762,0.840017
1363617334762,0.843056
1363617394761,0.835208
1363617454761,0.829473
1363617514761,0.840748
1363617574761,0.836666
1363617634761,0.854191
1363617694761,0.849237
1363617754761,0.844248
1363617814762,0.851017
1363617874762,0.848074
1363617934762,0.843254
1363617994762,0.851680
1363618054761,0.844704
1363618114762,0.837094
1363618174762,0.851441
1363618234762,0.839268
1363618294762,0.843240
1363618354762,0.845059
1363618414762,0.835804
1363618474762,0.844298
1363618534762,0.851484
1363618594762,0.842975
1363618654762,0.844495
1363618714761,0.845084
1363618774761,0.850717
1363618834773,0.846036
1363618894773,0.849479
1363618954773,0.832756
1363619014773,0.852820
1363619074773,0.838578
1363619134773,0.847712
1363619194773,0.842623
1363619254773,0.841919
1363619314773,0.851168
1363619374773,0.843094
1363619434773,0.845697
1363619494773,0.841276
1363619554773,0.841346
1363619614773,0.837267
1363619674773,0.840111
1363619734773,0.842620
1363619794773,0.841932
1363619854773,0.839507
1363619914773,0.839097
1363619974773,0.837692
1363620034773,0.843835
1363620094773,0.836429
1363620154773,0.837421
1363620214773,0.838087
1363620274773,0.834017
1363620334773,0.840610
1363620394773,0.843294
1363620454773,0.842403
1363620514773,0.840785
1363620574773,0.843398
1363620634773,0.842195
1363620694773,0.836459
1363620754773,0.835382
1363620814773,0.843200
1363620874773,0.838303
1363620934773,0.838817
1363620994773,0.846276
1363621054773,0.855255
1363621114773,0.853249
1363621174773,0.853069
1363621234773,0.852954
1363621294773,0.854153
1363621354773,0.858075
1363621414773,0.852979
1363621474773,0.851809
1363621534773,0.855702
1363621594773,0.860745
1363621654773,0.858141
1363621714773,0.865402
1363621774773,0.856603
1363621834773,0.863946
1363621894773,0.858047
1363621954773,0.862708
1363622014773,0.861386
1363622074773,0.859593
1363622134773,0.870427
1363622194773,0.866447
1363622254773,0.873693
1363622314773,0.878687
1363622374773,0.864559
1363622434785,0.874346
1363622494785,0.865495
1363622554785,0.868607
1363622614785,0.867422
1363622674785,0.869680
1363622734785,0.863464
1363622794785,0.864133
1363622854785,0.866504
1363622914785,0.868123
1363622974785,0.868203
1363623034785,0.864902
1363623094785,0.869974
1363623154785,0.864007
1363623214785,0.863658
1363623274785,0.856704
1363623334785,0.867916
1363623394785,0.862972
1363623454785,0.868896
1363623514785,0.851577
1363623574785,0.853779
1363623634785,0.860601
1363623694785,0.863567
1363623754785,0.859100
1363623814785,0.860080
1363623874785,0.853878
1363623934785,0.866059
1363623994785,0.857667
1363624054785,0.860360
1363624114785,0.855348
1363624174785,0.852034
1363624234785,0.856288
1363624294785,0.855329
1363624354785,0.853514
1363624414785,0.859254
1363624474785,0.857052
1363624534785,0.858471
1363624594785,0.857628
1363624654785,0.861672
1363624714785,0.858968
1363624774785,0.858353
1363624834785,0.859945
1363624894785,0.849000
1363624954785,0.853366
1363625014785,0.857146
1363625074785,0.850354
1363625134785,0.857510
1363625194785,0.848994
1363625254785,0.847970
1363625314785,0.848890
1363625374785,0.854260
1363625434785,0.856929
1363625494785,0.842158
1363625554785,0.853486
1363625614785,0.855929
1363625674785,0.843580
1363625734785,0.849480
1363625794785,0.853551
1363625854785,0.853378
1363625914785,0.849973
1363625974785,0.849213
1363626034796,0.853810
1363626094796,0.854868
1363626154796,0.848674
1363626214796,0.850866
1363626274796,0.851522
1363626334796,0.849614
1363626394796,0.853912
1363626454796,0.857296
1363626514796,0.844396
1363626574796,0.848233
1363626634796,0.847988
1363626694796,0.840767
1363626754796,0.846442
1363626814796,0.840047
1363626874796,0.852903
1363626934796,0.845234
1363626994796,0.842525
1363627054796,0.851706
1363627114796,0.847000
1363627174796,0.845122
1363627234796,0.850203
1363627294796,0.846180
1363627354796,0.847824
1363627414796,0.848738
1363627474796,0.850854
1363627534796,0.852710
1363627594796,0.847099
1363627654796,0.848365
1363627714796,0.845815
1363627774796,0.847258
1363627834796,0.851005
1363627894796,0.843049
1363627954796,0.846198
1363628014796,0.853774
1363628074796,0.848085
1363628134796,0.846142
1363628194796,0.851012
1363628254796,0.852972
1363628314796,0.853780
1363628374796,0.848732
1363628434796,0.845358
1363628494796,0.851220
1363628554796,0.842046
1363628614796,0.845882
1363628674796,0.839516
1363628734796,0.843925
1363628794796,0.842527
1363628854796,0.844818
1363628914796,0.832008
1363628974796,0.848409
1363629034796,0.846323
1363629094796,0.843353
1363629154796,0.849016
1363629214796,0.844428
1363629274796,0.845979
1363629334796,0.843553
1363629394796,0.845509
1363629454796,0.849117
1363629514796,0.837741
1363629574796,0.844263
1363629634808,0.843620
1363629694808,0.846604
1363629754808,0.840861
1363629814808,0.849386
1363629874808,0.842110
1363629934808,0.839763
1363629994808,0.841784
1363630054808,0.839139
1363630114808,0.846979
1363630174808,0.849211
1363630234808,0.845425
1363630294808,0.849233
1363630354808,0.848329
1363630414808,0.849387
1363630474808,0.849427
1363630534808,0.848463
1363630594808,0.842194
1363630654808,0.850874
1363630714808,0.850244
1363630774808,0.839647
1363630834808,0.850831
1363630894808,0.843749
1363630954808,0.847545
1363631014808,0.844256
1363631074808,0.848861
1363631134808,0.848429
1363631194808,0.849781
1363631254808,0.844028
1363631314808,0.847708
1363631374808,0.853668
1363631434808,0.845923
1363631494808,0.852036
1363631554808,0.845321
1363631614808,0.848198
1363631674808,0.854277
1363631734808,0.851763
1363631794808,0.850137
1363631854808,0.851717
1363631914808,0.852564
1363631974808,0.850968
1363632034808,0.855930
1363632094808,0.861435
1363632154808,0.855441
1363632214808,0.855605
1363632274808,0.850352
1363632334808,0.848909
1363632394808,0.851737
1363632454808,0.857640
1363632514808,0.848285
1363632574808,0.853903
1363632634808,0.846933
1363632694808,0.851368
1363632754808,0.855314
1363632814808,0.850202
1363632874808,0.856627
1363632934808,0.852289
1363632994808,0.847893
1363633054808,0.848130
1363633114808,0.856332
1363633174808,0.851258
1363633234819,0.848354
1363633294819,0.853542
1363633354819,0.853233
1363633414819,0.844015
1363633474819,0.857894
1363633534819,0.845226
1363633594819,0.854020
1363633654819,0.845907
1363633714819,0.848740
1363633774819,0.851957
1363633834819,0.854330
1363633894819,0.852696
1363633954819,0.855444
1363634014819,0.854006
1363634074819,0.855406
1363634134819,0.855567
1363634194819,0.853158
1363634254819,0.853947
1363634314819,0.851588
1363634374819,0.845672
1363634434819,0.846752
1363634494819,0.847217
1363634554819,0.859831
1363634614819,0.839920
1363634674819,0.848890
1363634734819,0.844483
1363634794819,0.846802
1363634854819,0.855824
1363634914819,0.838791
1363634974819,0.840484
1363635034819,0.845252
1363635094819,0.843878
1363635154819,0.851211
1363635214819,0.843335
1363635274819,0.841369
1363635334819,0.842083
1363635394819,0.852356
1363635454819,0.850503
1363635514819,0.844674
1363635574819,0.846166
1363635634819,0.846879
1363635694819,0.849388
1363635754819,0.847023
1363635814819,0.844012
1363635874819,0.850407
1363635934819,0.846937
1363635994819,0.849070
1363636054819,0.848067
1363636114819,0.851356
1363636174819,0.848596
1363636234819,0.843050
1363636294819,0.845523
1363636354819,0.850632
1363636414819,0.845042
1363636474819,0.843242
1363636534819,0.843870
1363636594819,0.850665
1363636654819,0.847957
1363636714819,0.843980
1363636774819,0.846934
1363636834831,0.846866
1363636894831,0.850736
1363636954831,0.847788
1363637014831,0.840213
1363637074831,0.839865
1363637134831,0.843882
1363637194831,0.846240
1363637254831,0.841872
1363637314831,0.847480
1363637374831,0.845954
1363637434831,0.849033
1363637494831,0.846975
1363637554831,0.844493
1363637614831,0.849626
1363637674831,0.853992
1363637734831,0.841483
1363637794831,0.845670
1363637854831,0.843917
1363637914831,0.853404
1363637974831,0.845678
1363638034831,0.839451
1363638094831,0.846952
1363638154831,0.843080
1363638214831,0.848878
1363638274831,0.848524
1363638334831,0.845509
1363638394831,0.836523
1363638454831,0.845489
1363638514831,0.851417
1363638574831,0.844139
1363638634831,0.845345
1363638694831,0.847465
1363638754831,0.848696
1363638814831,0.849046
1363638874831,0.847383
1363638934831,0.840867
1363638994831,0.843923
1363639054831,0.853769
1363639114831,0.847844
1363639174831,0.846107
1363639234831,0.845638
1363639294831,0.845157
1363639354831,0.847672
1363639414831,0.843266
1363639474831,0.855405
1363639534831,0.844445
1363639594831,0.845653
1363639654831,0.845049
1363639714831,0.847846
1363639774831,0.846954
1363639834831,0.840812
1363639894831,0.849781
1363639954831,0.843500
1363640014831,0.840166
1363640074831,0.851037
1363640134831,0.845055
1363640194831,0.849663
1363640254831,0.848497
1363640314831,0.855511
1363640374831,0.859385
1363640434842,0.862806
1363640494842,0.861613
1363640554842,0.857652
1363640614842,0.850849
1363640674842,0.866025
1363640734842,0.853563